INTELSAT 33E DEB, 61993

Orbit data source: Space-Track

INTELSAT 33E DEB, 61993 is space debris in GEO originally from a launch on Wed, 24 Aug 2016 UTC launched from the French Guiana (FRGUI). Debris objects in space refer to the collection of defunct objects orbiting the Earth. Examples of debris include non-operational satellites, rocket bodies, and fragments generated from explosions, collisions, or faulty payload assembly.

Loading next visibility...
Identifier
61993, 2016-053K
Orbit
GEO
Last TLE update
3 days ago
Origin
Manufacturer
Boeing/ES
Mission
Spacecraft
Bus & Motor
Unknown
Mass
Unknown
Launch date (UTC)
2016-08-24 (9 years ago)
Launch vehicle
Unknown
Launch site
French Guiana (FRGUI)
Object type
Payload
Rocket body
Debris
Shape & HBR
Unknown
Radar Cross Section
RCS unknown

Expand to show TLE details & history

TLE from 3 days ago
0 INTELSAT 33E DEB
1 61993U 16053K   25106.59785995 -.00000223  00000-0  00000-0 0  9992
2 61993   0.4174  60.7065 0098788 320.9602 338.7582  1.01201867  1825
Epoch: 2025-04-16T14:20Z
Definitive object data (Epoch: 2025-04-16T14:20:55.099Z)
Latitude
-0.34532°
Longitude
-60.21075°
Altitude
35,140.514 km
Speed
3.113 km/s
True Right ascension
00h 00m 00s
True Declination
0° 20' 42"
Sunlit
Object was in daylight at TLE epoch
Visualization TLE readout
Latitude
0.31487°
Longitude
51.11849°
Altitude
35,520.112 km
Speed
3.085 km/s
Apparent Right ascension
07h 49m 19s
Apparent Declination
-5° 33' 27"
Sunlit
Object is in daylight
Visualization observer readout
Local Sidereal Time
03:35:45
Azimuth
112.044° ESE
Elevation
16.247°
Doppler factor
1
Orbital elements
Apogee altitude
35,942.926 km
Perigee altitude
35,114.943 km
Semi-major axis
41,907.072 km
Eccentricity
0.0098788
Inclination
0.4174°
RAAN
60.7065°
Arg. of periapsis
320.9602°
True anomaly
338.34329°
Mean anomaly
338.7582°
Eccentric anomaly
338.55123°
Mean motion
0.253 °/min
BSTAR
Unknown
Orbital period
1422.95 mins
Loading historical data...
61993 neighbors
Loading maneuver chart data...
Loading SW <> Apogee altitude chart data...
Loading historical data...
Loading historical data...
Loading historical data...
Loading historical data...
Loading historical data...
Loading historical data...
Loading historical data...

INTELSAT 33E DEB Visibility forecast

Observer location: undefined°, undefined°

Span
Click to sort rows by Start time (UTC) header in descending order
Start Az.
Max El. time (UTC)
Max El. Az.
Max El.
End time (UTC)
End Az.
1440 mins2025-04-19 20:43:25.688Z112.059° ESE2025-04-20 04:51:25.688Z112.724° SE15.913°2025-04-20 20:43:25.688Z109.503° ESE
|